Location: Bethel Church
(38.0159°N, 88.7292°W)
Time: 03:32:46
(UTC+00:00)

Cosmos 1607 - Pass Details

Date: 08 December 2021
Orbit: 921 x 981 km, 65.0° (Epoch: 21 January)

Event Time Altitude Azimuth Distance (km) Brightness Sun altitude
Exits shadow 12:05:09 - 332° (NNW) 3,249 6.3 -10.4°
Reaches altitude 10° 12:06:43 10° 333° (NNW) 2,673 5.9 -10.1°
Maximum altitude 12:12:57 71° 58° (ENE) 986 4.2 -9.0°
Drops below altitude 10° 12:19:03 10° 142° (SE) 2,622 7.3 -7.9°
Sets 12:21:33 0° 145° (SE) 3,557 8.1 -7.4°
